Location: Milton
(43.5183°N, 79.8775°W)
Time: 15:17:54
(UTC+00:00)

UNISAT 6 - Pass Details

Date: 29 March 2023
Orbit: 599 x 680 km, 97.7° (Epoch: 02 June)

Event Time Altitude Azimuth Distance (km) Brightness Sun altitude
Rises 08:54:28 0° 125° (SE) 2,906 ? -23.6°
Reaches altitude 10° 08:57:10 10° 107° (ESE) 2,020 ? -23.2°
Maximum altitude 09:00:12 19° 64° (ENE) 1,554 ? -22.7°
Drops below altitude 10° 09:03:17 10° 20° (NNE) 2,066 ? -22.2°
Sets 09:06:05 0° 3° (N) 2,998 ? -21.8°
